Skip Page Navigation
NASA JPL Caltech
NASA Logo - Jet Propulsion Laboratory + View the NASA Portal
+ Near-Earth Object (NEO) Program
Search JPL
JPL Home Earth Solar System Stars & Galaxies Technology
JPL Solar System Dynamics
BODIES ORBITS EPHEMERIDES TOOLS PHYSICAL DATA DISCOVERY FAQ SITE MAP
JPL Small-Body Database Browser
Search: [ help ]  
48560 (1993 UX2)
Classification: Main-belt Asteroid          SPK-ID: 2048560
Ephemeris | Orbit Diagram | Orbital Elements | Physical Parameters | Discovery Circumstances ]

[ show orbit diagram ]
Orbital Elements at Epoch 2457000.5 (2014-Dec-09.0) TDB
Reference: JPL 11 (heliocentric ecliptic J2000)
 Element Value Uncertainty (1-sigma)   Units 
e .1921639273389179 6.5712e-08  
a 2.729777149666277 3.1942e-08 AU
q 2.205212451826368 1.8036e-07 AU
i 14.39914169954883 6.9935e-06 deg
node 106.4348678933288 2.8265e-05 deg
peri 300.6111529302523 3.4992e-05 deg
M 223.0733552788486 2.6315e-05 deg
tp 2457627.077338210739
(2016-Aug-26.57733821)
0.00012706 JED
period 1647.362660607296
4.51
2.8914e-05
7.916e-08
d
yr
n .2185311155876793 3.8357e-09 deg/d
Q 3.254341847506186 3.808e-08 AU
  Orbit Determination Parameters
   # obs. used (total)      444  
   data-arc span      7924 days (21.69 yr)  
   first obs. used      1993-10-09  
   last obs. used      2015-06-20  
   planetary ephem.      DE431  
   SB-pert. ephem.      SB431-BIG16  
   condition code      0  
   fit RMS      .54444  
   data source      ORB  
   producer      Otto Matic  
   solution date      2015-Jul-06 13:16:21  

Additional Information
 Earth MOID = 1.25384 AU 
 T_jup = 3.283 
[ show covariance matrix ]

Ephemeris | Orbit Diagram | Orbital Elements | Physical Parameters | Discovery Circumstances ]

Physical Parameter Table
Parameter Symbol Value Units Sigma Reference Notes
absolute magnitude H 14.5 mag n/a MPO302336  

48560 (1993 UX2)          Discovered 1993-Oct-20 by McNaught, R. H. at Siding Spring
Reference: 20021120/Numbers.arcLast Updated: 2004-04-19

Alternate Designations
 1993 UX2 = 1998 XA88 
Ephemeris | Orbit Diagram | Orbital Elements | Physical Parameters | Discovery Circumstances ]
ABOUT SSD CREDITS/AWARDS PRIVACY/COPYRIGHT GLOSSARY LINKS
FirstGov 2015-Jul-29 17:57 UT
(server date/time)  
NASA Home Page
Site Manager:   Ryan S. Park
Webmaster  Alan B. Chamberlin